Mexico City Airport, México

11:50 AM CDT en Octubre 23, 2017 (GMT -0500)
Lic Benito Juarez International

Tiempo Historia de MMMX - Mayo, 2017

Change the Weather History Date:

Viernes, Mayo 19, 2017

  Actual Average Record
Temperature  
Temperatura media 73 ° F -  
Temperatura máxima 86 ° F 76 ° F 87 ° F (1998)
Temperatura mínima 60 ° F 53 ° F 44 ° F (1999)
Cooling Degree Days 8    
Growing Degree Days 23 (Base 50)    
Moisture  
Punto de rocío 47 ° F    
Average Humidity 40    
Maximum Humidity 63    
Minimum Humidity 19    
Precipitación  
Precipitación 0.00 pul - - ()
Presión al nivel del mar  
Presión al nivel del mar 30.01 pul    
Viento  
Velocidad del viento 6 mph ()    
Velocidad máxima del viento 17 mph    
Max Gust Speed -    
Visibilidad 7.8 Millas    
Eventos      
Averages and records for this station are not official NWS values.
T = Trace of Precipitation, MM = Missing Value Source: Averaged Metar Reports

Daily Weather History Graph

Daily Weather History Graph

Search for Another Location

Airport or City:

Trip Planner

Search our weather history database for the weather conditions in past years. The results will help you decide how hot, cold, wet, or windy it might be!

Date:

Astronomía

May. 19, 2017 Salida Puesta
Hora real 6:59 AM CDT 8:06 PM CDT
Crepúsculo civil 6:36 AM CDT 8:29 PM CDT
Crepúsculo náutico 6:08 AM CDT 8:58 PM CDT
Crepúsculo astronómico 5:39 AM CDT 9:26 PM CDT
Luna 2:19 AM CDT (5/19) 2:12 PM CDT (5/19)
Horas de luz 13h 53m
Horas de luz
13h 06m
Cuarto menguante, 43% of the Moon is Illuminated
May 19
Cuarto menguante
May 25
Nueva
Jun 1
Cuarto creciente
Jun 9
Luna llena
Jun 17
Cuarto menguante

Hourly Weather History & Observations

Hora (CDT) Temp. Punto de rocío Humedad Presión Visibilidad Wind Dir Velocidad del viento Velocidad de ráfagas Precip Eventos Condiciones
12:56 AM 69.8 ° F 46.4 ° F 43% 29.62 pul 12.0 mi SO 9.2 mph - N/A   Nubes dispersas
1:55 AM 68.0 ° F 44.6 ° F 43% 30.21 pul 12.0 mi OSO 4.6 mph - N/A   Nubes dispersas
2:55 AM 66.2 ° F 48.2 ° F 52% 30.18 pul 12.0 mi NE 4.6 mph - N/A   Nubes dispersas
3:51 AM 64.4 ° F 48.2 ° F 56% 29.57 pul 10.0 mi ENE 10.4 mph - N/A   Nubes dispersas
4:50 AM 62.6 ° F 46.4 ° F 55% 30.17 pul 10.0 mi ENE 8.1 mph - N/A   Nubes dispersas
5:49 AM 60.8 ° F 48.2 ° F 63% 30.18 pul 10.0 mi NE 5.8 mph - N/A   Despejado
6:49 AM 62.6 ° F 48.2 ° F 59% 29.62 pul 9.0 mi Este 3.5 mph - N/A   Despejado
7:52 AM 60.8 ° F 48.2 ° F 63% 30.22 pul 8.0 mi Este 5.8 mph - N/A   Despejado
8:42 AM 64.4 ° F 48.2 ° F 56% 30.23 pul 9.0 mi Este 3.5 mph - N/A   Despejado
9:36 AM 66.2 ° F 46.4 ° F 49% 30.23 pul 8.0 mi Este 4.6 mph - N/A   Despejado
9:38 AM 68.0 ° F 46.4 ° F 46% 30.23 pul 8.0 mi Este 4.6 mph - N/A   Despejado
9:48 AM 69.8 ° F 46.4 ° F 43% 29.63 pul 8.0 mi SE 3.5 mph - N/A   Despejado
10:17 AM 73.4 ° F 48.2 ° F 41% 30.23 pul 8.0 mi Este 3.5 mph - N/A   Despejado
10:45 AM 75.2 ° F 46.4 ° F 36% 30.23 pul 8.0 mi Sur 3.5 mph - N/A   Despejado
11:43 AM 77.0 ° F 46.4 ° F 34% 30.21 pul 8.0 mi Norte 4.6 mph - N/A   Despejado
12:44 PM 80.6 ° F 44.6 ° F 28% 30.20 pul 7.0 mi SSO 3.5 mph - N/A   Despejado
12:47 PM 80.6 ° F 44.6 ° F 28% 29.56 pul 7.0 mi Norte 5.8 mph - N/A   Despejado
1:43 PM 82.4 ° F 44.6 ° F 26% 30.17 pul 7.0 mi NO 5.8 mph - N/A   Despejado
2:44 PM 84.2 ° F 39.2 ° F 20% 30.13 pul 6.0 mi ONO 9.2 mph - N/A   Parcialmente nublado
3:37 PM 86.0 ° F 41.0 ° F 20% 30.11 pul 6.0 mi NE 12.7 mph - N/A   Nubes dispersas
3:43 PM 86.0 ° F 41.0 ° F 20% 29.46 pul 6.0 mi Este 13.8 mph - N/A   Nubes dispersas
4:43 PM 84.2 ° F 39.2 ° F 20% 30.08 pul 6.0 mi NNO 5.8 mph - N/A   Muy nublado
5:47 PM 84.2 ° F 37.4 ° F 19% 30.07 pul 6.0 mi NE 10.4 mph - N/A   Nublado
6:48 PM 80.6 ° F 51.8 ° F 37% 30.10 pul 6.0 mi ESE 13.8 mph - N/A   Nublado
6:51 PM 78.8 ° F 53.6 ° F 42% 29.50 pul 6.0 mi ESE 17.3 mph - N/A   Nublado
7:42 PM 78.8 ° F 53.6 ° F 42% 30.11 pul 6.0 mi SSE 12.7 mph - N/A   Nublado
8:43 PM 77.0 ° F 48.2 ° F 36% 30.14 pul 7.0 mi ESE 12.7 mph - N/A   Nublado
9:44 PM 77.0 ° F 48.2 ° F 36% 29.67 pul 7.0 mi SE 4.6 mph - N/A   Muy nublado
10:08 PM 77.0 ° F 48.2 ° F 36% 29.67 pul 7.0 mi SE 4.6 mph - N/A   Nublado
10:50 PM 71.6 ° F 50.0 ° F 46% 30.20 pul 7.0 mi ONO 6.9 mph - N/A   Nublado
10:51 PM 71.6 ° F 50.0 ° F 46% 30.20 pul 7.0 mi ONO 6.9 mph - N/A   Nublado
11:47 PM 71.6 ° F 48.2 ° F 43% 30.23 pul 7.0 mi Oeste 3.5 mph - N/A   Nublado